GALAXY 33 (G-33)

Last updated on Fri Oct 11 2024 00:02:42 GMT+0000 (Coordinated Universal Time)

1 54026U 22128A 24283.66182646 .00000086 00000+0 00000+0 0 9992 2 54026 0.0156 163.6316 0001835 29.3605 291.0614 1.00272865 7583
UTC large
Height (km)
Speed (km/s)
/
Latitude / Longitude
Inclination (degrees)
Orbital Period (minutes)
Azimuth
Elevation
Range (km)
Doppler Factor

Next 0 passes for location: London (51.5072 / 0.1276)

Sorry there are no passes over London.